Year,Month,Day,Hour,Minute,Value (Times are PST for windspeed in km/hr)
2012,03,11,00,00,8.20
2012,03,11,00,01,8.40
2012,03,11,00,02,4.40
2012,03,11,00,03,1.90
2012,03,11,00,04,0.20
2012,03,11,00,05,1.60
2012,03,11,00,06,6.00
2012,03,11,00,07,6.90
2012,03,11,00,08,2.70
2012,03,11,00,09,6.00
2012,03,11,00,10,7.20
2012,03,11,00,11,7.20
2012,03,11,00,12,6.80
2012,03,11,00,13,9.30
2012,03,11,00,14,8.00
2012,03,11,00,15,8.60
2012,03,11,00,16,7.90
2012,03,11,00,17,3.80
2012,03,11,00,18,7.20
2012,03,11,00,19,5.40
2012,03,11,00,20,7.90
2012,03,11,00,21,4.70
2012,03,11,00,22,5.10
2012,03,11,00,23,8.20
2012,03,11,00,24,9.80
2012,03,11,00,25,8.20
2012,03,11,00,26,8.20
2012,03,11,00,27,5.20
2012,03,11,00,28,10.40
2012,03,11,00,29,7.50
2012,03,11,00,30,1.80
2012,03,11,00,31,7.50
2012,03,11,00,32,10.10
2012,03,11,00,33,8.00
2012,03,11,00,34,5.20
2012,03,11,00,35,3.70
2012,03,11,00,36,5.10
2012,03,11,00,37,6.10
2012,03,11,00,38,7.70
2012,03,11,00,39,7.70
2012,03,11,00,40,4.10
2012,03,11,00,41,5.10
2012,03,11,00,42,6.80
2012,03,11,00,43,8.40
2012,03,11,00,44,6.00
2012,03,11,00,45,2.80
2012,03,11,00,46,6.40
2012,03,11,00,47,8.20
2012,03,11,00,48,7.10
2012,03,11,00,49,3.00
2012,03,11,00,50,6.90
2012,03,11,00,51,4.30
2012,03,11,00,52,9.80
2012,03,11,00,53,5.00
2012,03,11,00,54,6.50
2012,03,11,00,55,4.40
2012,03,11,00,56,8.10
2012,03,11,00,57,2.00
2012,03,11,00,58,2.60
2012,03,11,00,59,3.20
2012,03,11,01,00,1.70
2012,03,11,01,01,3.60
2012,03,11,01,02,2.00
2012,03,11,01,03,6.10
2012,03,11,01,04,6.80
2012,03,11,01,05,6.60
2012,03,11,01,06,8.30
2012,03,11,01,07,7.50
2012,03,11,01,08,6.40
2012,03,11,01,09,0.90
2012,03,11,01,10,4.30
2012,03,11,01,11,3.10
2012,03,11,01,12,3.90
2012,03,11,01,13,1.80
2012,03,11,01,14,3.00
2012,03,11,01,15,6.10
2012,03,11,01,16,4.00
2012,03,11,01,17,5.50
2012,03,11,01,18,8.00
2012,03,11,01,19,6.90
2012,03,11,01,20,7.10
2012,03,11,01,21,8.30
2012,03,11,01,22,1.90
2012,03,11,01,23,3.00
2012,03,11,01,24,3.40
2012,03,11,01,25,3.30
2012,03,11,01,26,1.00
2012,03,11,01,27,0.80
2012,03,11,01,28,1.40
2012,03,11,01,29,1.50
2012,03,11,01,30,4.70
2012,03,11,01,31,4.60
2012,03,11,01,32,5.00
2012,03,11,01,33,2.90
2012,03,11,01,34,3.60
2012,03,11,01,35,4.30
2012,03,11,01,36,6.70
2012,03,11,01,37,6.10
2012,03,11,01,38,1.00
2012,03,11,01,39,4.20
2012,03,11,01,40,4.50
2012,03,11,01,41,5.30
2012,03,11,01,42,3.50
2012,03,11,01,43,2.00
2012,03,11,01,44,3.60
2012,03,11,01,45,6.80
2012,03,11,01,46,5.40
2012,03,11,01,47,3.70
2012,03,11,01,48,6.50
2012,03,11,01,49,1.90
2012,03,11,01,50,2.60
2012,03,11,01,51,1.70
2012,03,11,01,52,0.00
2012,03,11,01,53,1.00
2012,03,11,01,54,2.50
2012,03,11,01,55,0.60
2012,03,11,01,56,0.20
2012,03,11,01,57,3.70
2012,03,11,01,58,3.60
2012,03,11,01,59,5.50
2012,03,11,03,00,4.80
2012,03,11,03,01,5.30
2012,03,11,03,02,4.30
2012,03,11,03,06,6.40
2012,03,11,03,07,8.00
2012,03,11,03,08,6.70
2012,03,11,03,09,8.10
2012,03,11,03,10,7.50
2012,03,11,03,11,3.50
2012,03,11,03,12,4.70
2012,03,11,03,13,7.70
2012,03,11,03,14,6.30
2012,03,11,03,15,5.90
2012,03,11,03,16,6.20
2012,03,11,03,17,7.10
2012,03,11,03,18,6.50
2012,03,11,03,19,8.10
2012,03,11,03,20,8.00
2012,03,11,03,21,5.20
2012,03,11,03,22,9.00
2012,03,11,03,23,10.40
2012,03,11,03,24,9.30
2012,03,11,03,25,8.00
2012,03,11,03,26,12.10
2012,03,11,03,27,11.30
2012,03,11,03,28,10.20
2012,03,11,03,29,6.80
2012,03,11,03,30,8.90
2012,03,11,03,31,10.60
2012,03,11,03,32,9.10
2012,03,11,03,33,7.70
2012,03,11,03,34,6.60
2012,03,11,03,35,5.10
2012,03,11,03,36,9.30
2012,03,11,03,37,11.30
2012,03,11,03,38,3.00
2012,03,11,03,39,9.50
2012,03,11,03,40,7.50
2012,03,11,03,41,6.90
2012,03,11,03,42,6.50
2012,03,11,03,43,6.90
2012,03,11,03,44,5.40
2012,03,11,03,45,5.10
2012,03,11,03,46,3.70
2012,03,11,03,47,4.00
2012,03,11,03,48,3.30
2012,03,11,03,49,1.40
2012,03,11,03,50,2.40
2012,03,11,03,51,3.10
2012,03,11,03,52,5.30
2012,03,11,03,53,1.90
2012,03,11,03,54,4.70
2012,03,11,03,55,3.00
2012,03,11,03,56,2.90
2012,03,11,03,57,4.70
2012,03,11,03,58,2.20
2012,03,11,03,59,2.60
2012,03,11,04,00,1.50
2012,03,11,04,01,7.00
2012,03,11,04,02,2.10
2012,03,11,04,03,3.30
2012,03,11,04,04,1.90
2012,03,11,04,05,1.30
2012,03,11,04,06,1.70
2012,03,11,04,07,2.50
2012,03,11,04,08,0.50
2012,03,11,04,09,2.70
2012,03,11,04,10,2.30
2012,03,11,04,11,6.50
2012,03,11,04,12,6.80
2012,03,11,04,13,6.80
2012,03,11,04,14,3.40
2012,03,11,04,15,2.00
2012,03,11,04,16,5.30
2012,03,11,04,17,6.40
2012,03,11,04,18,3.40
2012,03,11,04,19,0.80
2012,03,11,04,20,1.90
2012,03,11,04,21,1.80
2012,03,11,04,22,5.30
2012,03,11,04,23,1.30
2012,03,11,04,24,3.60
2012,03,11,04,25,3.50
2012,03,11,04,26,5.60
2012,03,11,04,27,5.70
2012,03,11,04,28,1.20
2012,03,11,04,29,1.00
2012,03,11,04,30,3.10
2012,03,11,04,31,2.30
2012,03,11,04,32,2.10
2012,03,11,04,33,2.20
2012,03,11,04,34,4.80
2012,03,11,04,35,2.20
2012,03,11,04,36,3.10
2012,03,11,04,37,3.70
2012,03,11,04,38,3.40
2012,03,11,04,39,2.90
2012,03,11,04,40,4.80
2012,03,11,04,41,4.70
2012,03,11,04,42,2.50
2012,03,11,04,43,4.70
2012,03,11,04,44,6.30
2012,03,11,04,45,3.30
2012,03,11,04,46,2.70
2012,03,11,04,47,2.50
2012,03,11,04,48,1.80
2012,03,11,04,49,3.60
2012,03,11,04,50,4.90
2012,03,11,04,51,3.00
2012,03,11,04,52,7.20
2012,03,11,04,53,4.40
2012,03,11,04,54,5.30
2012,03,11,04,55,10.80
2012,03,11,04,56,10.20
2012,03,11,04,57,10.20
2012,03,11,04,58,7.60
2012,03,11,04,59,10.10
2012,03,11,05,00,3.50
2012,03,11,05,01,1.50
2012,03,11,05,02,2.70
2012,03,11,05,03,2.30
2012,03,11,05,04,3.00
2012,03,11,05,05,4.30
2012,03,11,05,06,2.80
2012,03,11,05,07,1.60
2012,03,11,05,08,6.40
2012,03,11,05,09,5.30
2012,03,11,05,10,9.10
2012,03,11,05,11,6.40
2012,03,11,05,12,5.50
2012,03,11,05,13,6.60
2012,03,11,05,14,8.00
2012,03,11,05,15,6.80
2012,03,11,05,16,1.10
2012,03,11,05,17,0.60
2012,03,11,05,18,3.90
2012,03,11,05,19,4.20
2012,03,11,05,20,2.50
2012,03,11,05,21,3.30
2012,03,11,05,22,3.00
2012,03,11,05,23,4.70
2012,03,11,05,24,2.70
2012,03,11,05,25,2.70
2012,03,11,05,26,2.30
2012,03,11,05,27,0.30
2012,03,11,05,28,0.10
2012,03,11,05,29,0.00
2012,03,11,05,30,0.00
2012,03,11,05,31,0.00
2012,03,11,05,32,1.10
2012,03,11,05,33,1.20
2012,03,11,05,34,0.50
2012,03,11,05,35,2.60
2012,03,11,05,36,4.10
2012,03,11,05,37,1.00
2012,03,11,05,38,0.80
2012,03,11,05,39,1.50
2012,03,11,05,40,3.20
2012,03,11,05,41,2.40
2012,03,11,05,42,3.40
2012,03,11,05,43,2.70
2012,03,11,05,44,0.60
2012,03,11,05,45,0.00
2012,03,11,05,46,0.00
2012,03,11,05,47,0.20
2012,03,11,05,48,0.00
2012,03,11,05,49,0.10
2012,03,11,05,50,2.50
2012,03,11,05,51,1.80
2012,03,11,05,52,2.80
2012,03,11,05,53,0.10
2012,03,11,05,54,0.10
2012,03,11,05,55,1.80
2012,03,11,05,56,4.70
2012,03,11,05,57,1.80
2012,03,11,05,58,0.90
2012,03,11,05,59,0.10
2012,03,11,06,00,2.20
2012,03,11,06,01,1.90
2012,03,11,06,02,0.50
2012,03,11,06,03,1.10
2012,03,11,06,04,1.80
2012,03,11,06,05,1.40
2012,03,11,06,06,1.80
2012,03,11,06,07,1.80
2012,03,11,06,08,1.20
2012,03,11,06,09,0.90
2012,03,11,06,10,2.10
2012,03,11,06,11,1.10
2012,03,11,06,12,3.10
2012,03,11,06,13,3.60
2012,03,11,06,14,1.00
2012,03,11,06,15,3.40
2012,03,11,06,16,1.10
2012,03,11,06,17,5.10
2012,03,11,06,18,5.90
2012,03,11,06,19,7.90
2012,03,11,06,20,6.00
2012,03,11,06,21,4.10
2012,03,11,06,22,4.90
2012,03,11,06,23,3.70
2012,03,11,06,24,9.70
2012,03,11,06,25,8.10
2012,03,11,06,26,5.70
2012,03,11,06,27,8.20
2012,03,11,06,28,8.00
2012,03,11,06,29,7.80
2012,03,11,06,30,9.00
2012,03,11,06,31,10.00
2012,03,11,06,32,4.30
2012,03,11,06,33,5.70
2012,03,11,06,34,7.70
2012,03,11,06,35,8.40
2012,03,11,06,36,12.10
2012,03,11,06,37,6.90
2012,03,11,06,38,6.10
2012,03,11,06,39,8.40
2012,03,11,06,40,10.10
2012,03,11,06,41,10.90
2012,03,11,06,42,7.90
2012,03,11,06,43,1.40
2012,03,11,06,44,6.40
2012,03,11,06,45,6.30
2012,03,11,06,46,5.80
2012,03,11,06,47,8.00
2012,03,11,06,48,18.50
2012,03,11,06,49,10.20
2012,03,11,06,50,6.40
2012,03,11,06,51,3.20
2012,03,11,06,52,8.50
2012,03,11,06,53,8.60
2012,03,11,06,54,4.40
2012,03,11,06,55,7.80
2012,03,11,06,56,3.30
2012,03,11,06,57,4.20
2012,03,11,06,58,6.40
2012,03,11,06,59,1.50
2012,03,11,07,00,3.00
2012,03,11,07,01,1.90
2012,03,11,07,02,0.40
2012,03,11,07,03,0.10
2012,03,11,07,04,2.00
2012,03,11,07,05,6.00
2012,03,11,07,06,9.50
2012,03,11,07,07,7.50
2012,03,11,07,08,6.10
2012,03,11,07,09,6.30
2012,03,11,07,10,5.40
2012,03,11,07,11,3.00
2012,03,11,07,12,6.20
2012,03,11,07,13,3.10
2012,03,11,07,14,2.50
2012,03,11,07,15,3.90
2012,03,11,07,16,1.40
2012,03,11,07,17,5.20
2012,03,11,07,18,4.90
2012,03,11,07,19,4.80
2012,03,11,07,20,6.40
2012,03,11,07,21,4.80
2012,03,11,07,22,7.70
2012,03,11,07,23,5.20
2012,03,11,07,24,6.30
2012,03,11,07,25,8.90
2012,03,11,07,26,8.50
2012,03,11,07,27,7.20
2012,03,11,07,28,10.00
2012,03,11,07,29,6.60
2012,03,11,07,30,5.30
2012,03,11,07,31,4.80
2012,03,11,07,32,6.20
2012,03,11,07,33,6.90
2012,03,11,07,34,6.40
2012,03,11,07,35,3.40
2012,03,11,07,36,8.30
2012,03,11,07,37,6.60
2012,03,11,07,38,7.40
2012,03,11,07,39,8.90
2012,03,11,07,40,11.00
2012,03,11,07,41,5.30
2012,03,11,07,42,9.20
2012,03,11,07,43,6.70
2012,03,11,07,44,7.70
2012,03,11,07,45,7.80
2012,03,11,07,46,5.60
2012,03,11,07,47,8.80
2012,03,11,07,48,6.00
2012,03,11,07,49,8.30
2012,03,11,07,50,7.70
2012,03,11,07,51,5.90
2012,03,11,07,52,2.00
2012,03,11,07,53,5.50
2012,03,11,07,54,7.80
2012,03,11,07,55,5.20
2012,03,11,07,56,4.50
2012,03,11,07,57,7.70
2012,03,11,07,58,8.00
2012,03,11,07,59,9.10
2012,03,11,08,00,5.70
2012,03,11,08,01,4.40
2012,03,11,08,02,2.10
2012,03,11,08,03,3.70
2012,03,11,08,04,3.50
2012,03,11,08,05,4.60
2012,03,11,08,06,6.90
2012,03,11,08,07,2.20
2012,03,11,08,08,3.90
2012,03,11,08,09,6.00
2012,03,11,08,10,3.90
2012,03,11,08,11,2.50
2012,03,11,08,12,3.90
2012,03,11,08,13,5.20
2012,03,11,08,14,2.70
2012,03,11,08,15,0.70
2012,03,11,08,16,3.30
2012,03,11,08,17,2.80
2012,03,11,08,18,7.30
2012,03,11,08,19,4.70
2012,03,11,08,20,7.10
2012,03,11,08,21,6.20
2012,03,11,08,22,6.50
2012,03,11,08,23,5.40
2012,03,11,08,24,3.50
2012,03,11,08,25,1.50
2012,03,11,08,26,1.70
2012,03,11,08,27,2.60
2012,03,11,08,28,1.50
2012,03,11,08,29,4.40
2012,03,11,08,30,6.00
2012,03,11,08,31,6.80
2012,03,11,08,32,7.60
2012,03,11,08,33,6.30
2012,03,11,08,34,2.70
2012,03,11,08,35,3.40
2012,03,11,08,36,5.20
2012,03,11,08,37,1.40
2012,03,11,08,38,3.10
2012,03,11,08,39,4.50
2012,03,11,08,40,5.50
2012,03,11,08,41,2.10
2012,03,11,08,42,3.20
2012,03,11,08,43,3.30
2012,03,11,08,44,1.30
2012,03,11,08,45,0.20
2012,03,11,08,46,0.60
2012,03,11,08,47,2.50
2012,03,11,08,48,3.50
2012,03,11,08,49,2.30
2012,03,11,08,50,4.60
2012,03,11,08,51,3.50
2012,03,11,08,52,0.50
2012,03,11,08,53,0.90
2012,03,11,08,54,3.30
2012,03,11,08,55,2.10
2012,03,11,08,56,0.90
2012,03,11,08,57,3.90
2012,03,11,08,58,4.40
2012,03,11,08,59,6.60
2012,03,11,09,00,7.20
2012,03,11,09,01,5.30
2012,03,11,09,02,4.90
2012,03,11,09,03,5.80
2012,03,11,09,04,8.90
2012,03,11,09,05,2.80
2012,03,11,09,06,4.10
2012,03,11,09,07,2.50
2012,03,11,09,08,6.60
2012,03,11,09,09,7.50
2012,03,11,09,10,3.50
2012,03,11,09,11,6.00
2012,03,11,09,12,1.90
2012,03,11,09,13,3.30
2012,03,11,09,14,3.20
2012,03,11,09,15,3.40
2012,03,11,09,16,4.80
2012,03,11,09,17,5.20
2012,03,11,09,18,3.20
2012,03,11,09,19,3.60
2012,03,11,09,20,1.00
2012,03,11,09,21,1.90
2012,03,11,09,22,0.60
2012,03,11,09,23,0.00
2012,03,11,09,24,0.60
2012,03,11,09,25,2.40
2012,03,11,09,26,4.70
2012,03,11,09,27,2.20
2012,03,11,09,28,1.20
2012,03,11,09,29,2.10
2012,03,11,09,30,1.20
2012,03,11,09,31,2.60
2012,03,11,09,32,1.10
2012,03,11,09,33,1.90
2012,03,11,09,34,4.30
2012,03,11,09,35,3.00
2012,03,11,09,36,3.20
2012,03,11,09,37,4.00
2012,03,11,09,38,4.00
2012,03,11,09,39,5.90
2012,03,11,09,40,7.60
2012,03,11,09,41,6.30
2012,03,11,09,42,4.80
2012,03,11,09,43,3.90
2012,03,11,09,44,4.70
2012,03,11,09,45,3.20
2012,03,11,09,46,4.30
2012,03,11,09,47,4.70
2012,03,11,09,48,7.10
2012,03,11,09,49,6.30
2012,03,11,09,50,8.90
2012,03,11,09,51,6.60
2012,03,11,09,52,8.00
2012,03,11,09,53,10.60
2012,03,11,09,54,9.00
2012,03,11,09,55,12.60
2012,03,11,09,56,9.10
2012,03,11,09,57,7.30
2012,03,11,09,58,12.20
2012,03,11,09,59,8.80
2012,03,11,10,00,9.20
2012,03,11,10,01,8.60
2012,03,11,10,02,9.60
2012,03,11,10,03,10.90
2012,03,11,10,04,4.70
2012,03,11,10,05,9.40
2012,03,11,10,06,8.80
2012,03,11,10,07,7.90
2012,03,11,10,08,8.00
2012,03,11,10,09,4.60
2012,03,11,10,10,9.20
2012,03,11,10,11,7.60
2012,03,11,10,12,10.50
2012,03,11,10,13,19.10
2012,03,11,10,14,8.00
2012,03,11,10,15,2.50
2012,03,11,10,16,1.50
2012,03,11,10,17,6.90
2012,03,11,10,18,4.40
2012,03,11,10,19,4.70
2012,03,11,10,20,7.30
2012,03,11,10,21,1.60
2012,03,11,10,22,2.70
2012,03,11,10,23,5.20
2012,03,11,10,24,3.10
2012,03,11,10,25,0.50
2012,03,11,10,26,2.10
2012,03,11,10,27,3.90
2012,03,11,10,28,7.30
2012,03,11,10,29,7.20
2012,03,11,10,30,8.00
2012,03,11,10,31,3.80
2012,03,11,10,32,9.50
2012,03,11,10,33,10.00
2012,03,11,10,34,7.50
2012,03,11,10,35,6.80
2012,03,11,10,36,4.60
2012,03,11,10,37,7.40
2012,03,11,10,38,4.20
2012,03,11,10,39,1.30
2012,03,11,10,40,5.10
2012,03,11,10,41,3.00
2012,03,11,10,42,7.50
2012,03,11,10,43,8.00
2012,03,11,10,44,14.30
2012,03,11,10,45,11.50
2012,03,11,10,46,7.70
2012,03,11,10,47,3.40
2012,03,11,10,48,2.30
2012,03,11,10,49,8.10
2012,03,11,10,50,8.80
2012,03,11,10,51,8.90
2012,03,11,10,52,10.70
2012,03,11,10,53,6.40
2012,03,11,10,54,6.00
2012,03,11,10,55,2.00
2012,03,11,10,56,1.40
2012,03,11,10,57,3.50
2012,03,11,10,58,3.70
2012,03,11,10,59,4.50
2012,03,11,11,00,6.70
2012,03,11,11,01,7.10
2012,03,11,11,02,6.20
2012,03,11,11,03,6.80
2012,03,11,11,04,3.10
2012,03,11,11,05,2.30
2012,03,11,11,06,0.90
2012,03,11,11,07,9.20
2012,03,11,11,08,9.70
2012,03,11,11,09,14.00
2012,03,11,11,10,7.50
2012,03,11,11,11,5.10
2012,03,11,11,12,6.10
2012,03,11,11,13,3.30
2012,03,11,11,14,2.30
2012,03,11,11,15,3.10
2012,03,11,11,16,3.50
2012,03,11,11,17,5.30
2012,03,11,11,18,8.80
2012,03,11,11,19,4.40
2012,03,11,11,20,6.10
2012,03,11,11,21,5.80
2012,03,11,11,22,8.60
2012,03,11,11,23,5.10
2012,03,11,11,24,8.20
2012,03,11,11,25,9.20
2012,03,11,11,26,4.40
2012,03,11,11,27,7.40
2012,03,11,11,28,5.70
2012,03,11,11,29,1.10
2012,03,11,11,30,8.90
2012,03,11,11,31,10.30
2012,03,11,11,32,12.60
2012,03,11,11,33,5.80
2012,03,11,11,34,5.30
2012,03,11,11,35,12.20
2012,03,11,11,36,11.40
2012,03,11,11,37,2.90
2012,03,11,11,38,1.60
2012,03,11,11,39,3.50
2012,03,11,11,40,2.90
2012,03,11,11,41,2.60
2012,03,11,11,42,4.40
2012,03,11,11,43,1.50
2012,03,11,11,44,0.50
2012,03,11,11,45,4.30
2012,03,11,11,46,1.90
2012,03,11,11,47,3.00
2012,03,11,11,48,4.70
2012,03,11,11,49,4.80
2012,03,11,11,50,2.20
2012,03,11,11,51,0.40
2012,03,11,11,52,0.60
2012,03,11,11,53,0.00
2012,03,11,11,54,2.10
2012,03,11,11,55,2.00
2012,03,11,11,56,4.90
2012,03,11,11,57,2.80
2012,03,11,11,58,2.40
2012,03,11,11,59,0.20
2012,03,11,12,00,0.20
2012,03,11,12,01,2.20
2012,03,11,12,02,0.10
2012,03,11,12,03,1.10
2012,03,11,12,04,3.70
2012,03,11,12,05,1.80
2012,03,11,12,06,0.20
2012,03,11,12,07,1.10
2012,03,11,12,08,0.60
2012,03,11,12,09,2.70
2012,03,11,12,10,1.10
2012,03,11,12,11,0.30
2012,03,11,12,12,0.50
2012,03,11,12,13,0.70
2012,03,11,12,14,0.50
2012,03,11,12,15,0.10
2012,03,11,12,16,1.80
2012,03,11,12,17,2.20
2012,03,11,12,18,1.90
2012,03,11,12,19,0.10
2012,03,11,12,20,0.00
2012,03,11,12,21,4.80
2012,03,11,12,22,3.00
2012,03,11,12,23,0.80
2012,03,11,12,24,2.90
2012,03,11,12,25,4.70
2012,03,11,12,26,3.60
2012,03,11,12,27,3.10
2012,03,11,12,28,3.50
2012,03,11,12,29,2.20
2012,03,11,12,30,7.20
2012,03,11,12,31,9.00
2012,03,11,12,32,10.50
2012,03,11,12,33,5.10
2012,03,11,12,34,0.20
2012,03,11,12,35,0.20
2012,03,11,12,36,5.60
2012,03,11,12,37,4.10
2012,03,11,12,38,4.50
2012,03,11,12,39,4.50
2012,03,11,12,40,1.80
2012,03,11,12,41,3.10
2012,03,11,12,42,2.50
2012,03,11,12,43,0.60
2012,03,11,12,44,1.50
2012,03,11,12,45,2.00
2012,03,11,12,46,1.70
2012,03,11,12,47,1.00
2012,03,11,12,48,2.80
2012,03,11,12,49,5.80
2012,03,11,12,50,2.20
2012,03,11,12,51,1.20
2012,03,11,12,52,6.00
2012,03,11,12,53,5.70
2012,03,11,12,54,10.60
2012,03,11,12,55,8.50
2012,03,11,12,56,11.40
2012,03,11,12,57,13.10
2012,03,11,12,58,7.40
2012,03,11,12,59,2.30
2012,03,11,13,00,1.50
2012,03,11,13,01,6.50
2012,03,11,13,02,1.90
2012,03,11,13,03,3.90
2012,03,11,13,04,11.60
2012,03,11,13,05,5.10
2012,03,11,13,06,6.80
2012,03,11,13,07,7.20
2012,03,11,13,08,7.40
2012,03,11,13,09,3.30
2012,03,11,13,10,2.10
2012,03,11,13,11,11.20
2012,03,11,13,12,9.60
2012,03,11,13,13,7.50
2012,03,11,13,14,8.00
2012,03,11,13,15,12.60
2012,03,11,13,16,8.00
2012,03,11,13,17,13.00
2012,03,11,13,18,12.60
2012,03,11,13,19,15.50
2012,03,11,13,20,12.50
2012,03,11,13,21,17.10
2012,03,11,13,22,9.60
2012,03,11,13,23,11.40
2012,03,11,13,24,10.50
2012,03,11,13,25,11.50
2012,03,11,13,26,9.80
2012,03,11,13,27,8.60
2012,03,11,13,28,11.30
2012,03,11,13,29,4.90
2012,03,11,13,30,13.00
2012,03,11,13,31,8.10
2012,03,11,13,32,6.80
2012,03,11,13,33,4.80
2012,03,11,13,34,0.00
2012,03,11,13,35,4.00
2012,03,11,13,36,7.20
2012,03,11,13,37,6.60
2012,03,11,13,38,8.40
2012,03,11,13,39,10.20
2012,03,11,13,40,3.10
2012,03,11,13,41,5.20
2012,03,11,13,42,3.70
2012,03,11,13,43,5.30
2012,03,11,13,44,4.10
2012,03,11,13,45,1.10
2012,03,11,13,46,1.80
2012,03,11,13,47,5.80
2012,03,11,13,48,3.00
2012,03,11,13,49,2.80
2012,03,11,13,50,1.50
2012,03,11,13,51,0.60
2012,03,11,13,52,4.30
2012,03,11,13,53,4.70
2012,03,11,13,54,4.20
2012,03,11,13,55,3.40
2012,03,11,13,56,6.50
2012,03,11,13,57,4.90
2012,03,11,13,58,6.10
2012,03,11,13,59,4.20
2012,03,11,14,00,0.20
2012,03,11,14,01,1.70
2012,03,11,14,02,4.70
2012,03,11,14,03,3.00
2012,03,11,14,04,2.70
2012,03,11,14,05,6.60
2012,03,11,14,06,3.40
2012,03,11,14,07,1.20
2012,03,11,14,08,8.80
2012,03,11,14,09,5.10
2012,03,11,14,10,6.40
2012,03,11,14,11,3.00
2012,03,11,14,12,9.10
2012,03,11,14,13,2.80
2012,03,11,14,14,4.30
2012,03,11,14,15,6.40
2012,03,11,14,16,4.30
2012,03,11,14,17,7.60
2012,03,11,14,18,12.20
2012,03,11,14,19,8.50
2012,03,11,14,20,4.70
2012,03,11,14,21,1.70
2012,03,11,14,22,7.60
2012,03,11,14,23,4.20
2012,03,11,14,24,12.00
2012,03,11,14,25,9.20
2012,03,11,14,26,6.90
2012,03,11,14,27,4.00
2012,03,11,14,28,14.90
2012,03,11,14,29,13.50
2012,03,11,14,30,6.40
2012,03,11,14,31,7.50
2012,03,11,14,32,4.40
2012,03,11,14,33,10.80
2012,03,11,14,34,7.60
2012,03,11,14,35,8.20
2012,03,11,14,36,6.30
2012,03,11,14,37,11.30
2012,03,11,14,38,9.70
2012,03,11,14,39,15.00
2012,03,11,14,40,11.30
2012,03,11,14,41,9.50
2012,03,11,14,42,8.60
2012,03,11,14,43,10.20
2012,03,11,14,44,9.10
2012,03,11,14,45,11.80
2012,03,11,14,46,7.50
2012,03,11,14,47,6.80
2012,03,11,14,48,9.30
2012,03,11,14,49,4.10
2012,03,11,14,50,6.70
2012,03,11,14,51,3.20
2012,03,11,14,52,7.80
2012,03,11,14,53,13.60
2012,03,11,14,54,16.60
2012,03,11,14,55,16.70
2012,03,11,14,56,15.30
2012,03,11,14,57,13.10
2012,03,11,14,58,3.60
2012,03,11,14,59,5.90
2012,03,11,15,00,10.40
2012,03,11,15,01,4.10
2012,03,11,15,02,6.80
2012,03,11,15,03,12.10
2012,03,11,15,04,4.50
2012,03,11,15,05,3.10
2012,03,11,15,06,7.00
2012,03,11,15,07,7.20
2012,03,11,15,08,8.50
2012,03,11,15,09,3.20
2012,03,11,15,10,3.90
2012,03,11,15,11,16.60
2012,03,11,15,12,11.70
2012,03,11,15,13,14.50
2012,03,11,15,14,12.00
2012,03,11,15,15,13.90
2012,03,11,15,16,10.80
2012,03,11,15,17,13.20
2012,03,11,15,18,15.40
2012,03,11,15,19,7.00
2012,03,11,15,20,4.70
2012,03,11,15,21,6.30
2012,03,11,15,22,3.00
2012,03,11,15,23,2.90
2012,03,11,15,24,2.90
2012,03,11,15,25,4.50
2012,03,11,15,26,7.70
2012,03,11,15,27,5.90
2012,03,11,15,28,6.30
2012,03,11,15,29,4.30
2012,03,11,15,30,9.60
2012,03,11,15,31,11.00
2012,03,11,15,32,9.40
2012,03,11,15,33,8.20
2012,03,11,15,34,8.80
2012,03,11,15,35,13.90
2012,03,11,15,36,11.50
2012,03,11,15,37,11.00
2012,03,11,15,38,7.70
2012,03,11,15,39,6.90
2012,03,11,15,40,6.30
2012,03,11,15,41,10.80
2012,03,11,15,42,10.30
2012,03,11,15,43,7.20
2012,03,11,15,44,8.30
2012,03,11,15,45,7.40
2012,03,11,15,46,5.80
2012,03,11,15,47,6.20
2012,03,11,15,48,5.60
2012,03,11,15,49,4.20
2012,03,11,15,50,4.40
2012,03,11,15,51,4.20
2012,03,11,15,52,10.20
2012,03,11,15,53,5.50
2012,03,11,15,54,7.20
2012,03,11,15,55,3.00
2012,03,11,15,56,7.90
2012,03,11,15,57,2.30
2012,03,11,15,58,6.20
2012,03,11,15,59,14.30
2012,03,11,16,00,15.20
2012,03,11,16,01,10.60
2012,03,11,16,02,10.10
2012,03,11,16,03,7.60
2012,03,11,16,04,5.70
2012,03,11,16,05,0.40
2012,03,11,16,06,6.80
2012,03,11,16,07,2.70
2012,03,11,16,08,1.70
2012,03,11,16,09,5.50
2012,03,11,16,10,5.40
2012,03,11,16,11,7.60
2012,03,11,16,12,7.90
2012,03,11,16,13,9.60
2012,03,11,16,14,3.20
2012,03,11,16,15,13.30
2012,03,11,16,16,10.50
2012,03,11,16,17,11.20
2012,03,11,16,18,9.60
2012,03,11,16,19,5.30
2012,03,11,16,20,4.70
2012,03,11,16,21,5.20
2012,03,11,16,22,0.80
2012,03,11,16,23,6.60
2012,03,11,16,24,2.30
2012,03,11,16,25,5.00
2012,03,11,16,26,9.30
2012,03,11,16,27,7.40
2012,03,11,16,28,8.10
2012,03,11,16,29,9.50
2012,03,11,16,30,5.30
2012,03,11,16,31,5.60
2012,03,11,16,32,3.60
2012,03,11,16,33,0.70
2012,03,11,16,34,1.30
2012,03,11,16,35,1.60
2012,03,11,16,36,1.70
2012,03,11,16,37,2.00
2012,03,11,16,38,2.30
2012,03,11,16,39,0.50
2012,03,11,16,40,1.60
2012,03,11,16,41,3.30
2012,03,11,16,42,1.70
2012,03,11,16,43,4.30
2012,03,11,16,44,5.50
2012,03,11,16,45,9.50
2012,03,11,16,46,7.20
2012,03,11,16,47,7.00
2012,03,11,16,48,3.30
2012,03,11,16,49,6.00
2012,03,11,16,50,3.00
2012,03,11,16,51,7.30
2012,03,11,16,52,4.60
2012,03,11,16,53,6.30
2012,03,11,16,54,4.20
2012,03,11,16,55,3.40
2012,03,11,16,56,1.00
2012,03,11,16,57,1.30
2012,03,11,16,58,5.40
2012,03,11,16,59,6.40
2012,03,11,17,00,6.30
2012,03,11,17,01,6.00
2012,03,11,17,02,5.40
2012,03,11,17,03,0.90
2012,03,11,17,04,1.90
2012,03,11,17,05,5.70
2012,03,11,17,06,5.80
2012,03,11,17,07,10.90
2012,03,11,17,08,8.60
2012,03,11,17,09,9.20
2012,03,11,17,10,4.90
2012,03,11,17,11,6.00
2012,03,11,17,12,6.80
2012,03,11,17,13,5.80
2012,03,11,17,14,5.70
2012,03,11,17,15,9.00
2012,03,11,17,16,6.20
2012,03,11,17,17,8.70
2012,03,11,17,18,8.70
2012,03,11,17,19,8.40
2012,03,11,17,20,3.40
2012,03,11,17,21,3.70
2012,03,11,17,22,4.10
2012,03,11,17,23,1.40
2012,03,11,17,24,1.60
2012,03,11,17,25,5.00
2012,03,11,17,26,3.70
2012,03,11,17,27,2.50
2012,03,11,17,28,6.00
2012,03,11,17,29,3.30
2012,03,11,17,30,4.50
2012,03,11,17,31,1.10
2012,03,11,17,32,0.00
2012,03,11,17,33,0.80
2012,03,11,17,34,6.50
2012,03,11,17,35,0.70
2012,03,11,17,36,2.30
2012,03,11,17,37,7.00
2012,03,11,17,38,8.40
2012,03,11,17,39,2.50
2012,03,11,17,40,0.10
2012,03,11,17,41,8.00
2012,03,11,17,42,9.20
2012,03,11,17,43,7.50
2012,03,11,17,44,5.50
2012,03,11,17,45,5.80
2012,03,11,17,46,3.20
2012,03,11,17,47,8.70
2012,03,11,17,48,5.10
2012,03,11,17,49,3.10
2012,03,11,17,50,2.00
2012,03,11,17,51,7.90
2012,03,11,17,52,10.20
2012,03,11,17,53,6.20
2012,03,11,17,54,6.80
2012,03,11,17,55,6.90
2012,03,11,17,56,9.70
2012,03,11,17,57,8.90
2012,03,11,17,58,12.10
2012,03,11,17,59,7.60
2012,03,11,18,00,4.10
2012,03,11,18,01,2.70
2012,03,11,18,02,3.50
2012,03,11,18,03,4.80
2012,03,11,18,04,7.20
2012,03,11,18,05,2.20
2012,03,11,18,06,4.40
2012,03,11,18,07,2.60
2012,03,11,18,08,4.60
2012,03,11,18,09,3.10
2012,03,11,18,10,4.40
2012,03,11,18,11,0.10
2012,03,11,18,12,1.00
2012,03,11,18,13,2.10
2012,03,11,18,14,0.50
2012,03,11,18,15,1.00
2012,03,11,18,16,1.40
2012,03,11,18,17,2.80
2012,03,11,18,18,5.10
2012,03,11,18,19,7.20
2012,03,11,18,20,5.70
2012,03,11,18,21,1.50
2012,03,11,18,22,0.40
2012,03,11,18,23,4.00
2012,03,11,18,24,10.10
2012,03,11,18,25,11.80
2012,03,11,18,26,5.30
2012,03,11,18,27,6.40
2012,03,11,18,28,10.10
2012,03,11,18,29,4.20
2012,03,11,18,30,8.50
2012,03,11,18,31,3.00
2012,03,11,18,32,10.20
2012,03,11,18,33,4.10
2012,03,11,18,34,5.90
2012,03,11,18,35,12.60
2012,03,11,18,36,2.70
2012,03,11,18,37,9.50
2012,03,11,18,38,6.70
2012,03,11,18,39,8.00
2012,03,11,18,40,8.90
2012,03,11,18,41,3.10
2012,03,11,18,42,4.70
2012,03,11,18,43,0.80
2012,03,11,18,44,6.00
2012,03,11,18,45,2.70
2012,03,11,18,46,5.30
2012,03,11,18,47,2.10
2012,03,11,18,48,5.50
2012,03,11,18,49,4.10
2012,03,11,18,50,1.60
2012,03,11,18,51,1.20
2012,03,11,18,52,5.20
2012,03,11,18,53,3.20
2012,03,11,18,54,2.50
2012,03,11,18,55,0.20
2012,03,11,18,56,2.00
2012,03,11,18,57,1.40
2012,03,11,18,58,0.10
2012,03,11,18,59,0.00
2012,03,11,19,00,1.10
2012,03,11,19,01,2.10
2012,03,11,19,02,1.30
2012,03,11,19,03,6.00
2012,03,11,19,04,6.80
2012,03,11,19,05,5.90